Regional Weather Roundup
Issued by NWS Spokane, WA

Current Version | Previous Version | Text Only | Print | Product List | Glossary On
Versions: 1 2 3 4 5 6 7 8 9 10 11 12 13 14 15 16 17 18 19 20 21 22 23 24 25 26 27 28 29 30 31 32 33 34 35 36 37 38 39 40 41 42 43 44 45 46 47 48 49 50
000
NZUS01 KOTX 242110
RWROTX
EASTERN WASHINGTON/NORTHERN IDAHO ROUNDUP
NATIONAL WEATHER SERVICE, SPOKANE WA
200 PM PDT THU JUL 24 2014

Note: "fair" indicated few or no clouds below 12,000 feet with no
significant weather and/or obstructions to visibility.

...NORTHEAST WASHINGTON AND NORTHERN IDAHO PANHANDLE...

CITY           SKY/WX    TMP DP  RH WIND       PRES   REMARKS
SPOKANE INTL   CLOUDY    63  41  44 SW22      30.12R
SPOKANE DOWNTO CLOUDY    65  41  41 SW23G31   30.13R
COEUR D ALENE  CLOUDY    63  43  48 W13G22    30.12R
DEER PARK      CLOUDY    62  42  47 SW17G24   30.12R
SANDPOINT      CLOUDY    55  50  82 SW5       30.11S

...SOUTHEAST WASHINGTON AND SOUTHERN IDAHO PANHANDLE...

CITY           SKY/WX    TMP DP  RH WIND       PRES   REMARKS
WALLA WALLA    LGT RAIN  74  41  30 SW16G28   30.17F
PULLMAN/MOSCOW FAIR      67  39  35 W16G30    30.19R
LEWISTON       FAIR      75  39  27 NW9       30.13S
LOWELL           N/A     76  40  27 VRB3      30.12F

...COLUMBIA BASIN...

CITY           SKY/WX    TMP DP  RH WIND       PRES   REMARKS
EPHRATA        CLOUDY    74  43  32 SW21G29   30.08F
MOSES LAKE     CLOUDY    73  42  32 SW15      30.10S
TRI CITIES     FAIR      79  46  31 SW17G28   30.12F
HERMISTON      FAIR      78  44  29 W21G26    30.14F
PENDLETON      FAIR      75  40  28 W18G26    30.16F

...EAST SLOPES CASCADES...

CITY           SKY/WX    TMP DP  RH WIND       PRES   REMARKS
THE DALLES     FAIR      74  51  44 NW16G29   30.18F
YAKIMA         FAIR      76  45  33 NW15G22   30.11S
ELLENSBURG     FAIR      72  50  45 NW21G28   30.12F
STAMPEDE PASS  CLOUDY    46  44  93 W8G24     30.23  FOG
WENATCHEE      FAIR      73  45  36 NW14      30.08S
OMAK           FAIR      73  42  32 S10       30.04S

...SOUTHERN BRITISH COLUMBIA...

CITY           SKY/WX    TMP DP  RH WIND       PRES   REMARKS
PENTICTON      LGT RAIN  61  50  67 S13       30.05
CASTLEGAR      PTSUNNY   61  46  59 S13G21    30.05S
CRANBROOK      PTSUNNY   61  39  44 S22G37    30.01S

...WESTERN MONTANA...

CITY           SKY/WX    TMP DP  RH WIND       PRES   REMARKS
MISSOULA       FAIR      68  33  27 W8G23     30.13S

...NEIGHBORING CITIES...

CITY           SKY/WX    TMP DP  RH WIND       PRES   REMARKS
SEATTLE        PTSUNNY   67  53  61 SW14G24   30.21R
CALGARY        MOSUNNY   66  36  32 W21G37    29.73R



USA.gov is the U.S. government's official web portal to all federal, state and local government web resources and services.